KN4DS-3 Weather Reports


time (UTC)temp
C
wind
direction
speed
KPH
gust
KPH
rain 1hr
cm
rain 24hr
cm
rain mn
cm
humidity
%
barometer
mb
20260506165504 29 300 3.2 4.8 0.00 0.00 0.00 46 1016.6
20260506165004 28 201 1.6 16.1 0.00 0.00 0.00 47 1016.6
20260506164504 28 141 4.8 12.9 0.00 0.00 0.00 48 1016.7
20260506164004 28 267 1.6 11.3 0.00 0.00 0.00 51 1016.8
20260506163505 28 248 3.2 8.0 0.00 0.00 0.00 51 1016.9
20260506163004 27 246 3.2 12.9 0.00 0.00 0.00 51 1017.0
20260506162503 27 177 3.2 12.9 0.00 0.00 0.00 52 1017.0
20260506162004 27 194 1.6 8.0 0.00 0.00 0.00 54 1017.0
20260506161504 27 318 3.2 12.9 0.00 0.00 0.00 55 1017.1
20260506161004 26 254 3.2 14.5 0.00 0.00 0.00 56 1017.1
20260506160504 26 37 1.6 8.0 0.00 0.00 0.00 58 1017.1
20260506160004 26 146 1.6 4.8 0.00 0.00 0.00 59 1017.2
20260506155504 26 117 1.6 8.0 0.00 0.00 0.00 59 1017.2
20260506155004 26 258 3.2 9.7 0.00 0.00 0.00 57 1017.3
20260506154504 26 263 1.6 9.7 0.00 0.00 0.00 57 1017.3
20260506154004 26 227 3.2 8.0 0.00 0.00 0.00 56 1017.4
20260506153504 26 279 3.2 9.7 0.00 0.00 0.00 55 1017.4
20260506153004 26 273 3.2 16.1 0.00 0.00 0.00 55 1017.4
20260506152504 26 257 3.2 11.3 0.00 0.00 0.00 57 1017.2
20260506152004 26 20 1.6 4.8 0.00 0.00 0.00 60 1017.2
20260506151504 25 257 1.6 9.7 0.00 0.00 0.00 60 1017.4
20260506151004 25 289 3.2 9.7 0.00 0.00 0.00 62 1017.3
20260506150505 25 347 3.2 12.9 0.00 0.00 0.00 63 1017.2
20260506150004 25 260 3.2 4.8 0.00 0.00 0.00 65 1017.1
20260506145504 25 229 1.6 3.2 0.00 0.00 0.00 66 1017.1
20260506145005 24 191 1.6 3.2 0.00 0.00 0.00 68 1017.1
20260506144504 23 166 0.0 12.9 0.00 0.00 0.00 71 1017.1
20260506144004 23 325 0.0 1.6 0.00 0.00 0.00 72 1017.0
20260506143504 23 255 0.0 3.2 0.00 0.00 0.00 74 1017.1
20260506143004 22 161 0.0 4.8 0.00 0.00 0.00 75 1016.9
20260506142503 22 232 1.6 8.0 0.00 0.00 0.00 78 1016.7
20260506142004 21 146 0.0 3.2 0.00 0.00 0.00 80 1016.7
20260506141504 21 157 0.0 3.2 0.00 0.00 0.00 80 1016.9
20260506141004 21 94 0.0 3.2 0.00 0.00 0.00 80 1016.7
20260506140504 21 183 3.2 9.7 0.00 0.00 0.00 80 1016.7
20260506140004 21 142 1.6 3.2 0.00 0.00 0.00 81 1016.7
20260506135504 21 190 1.6 3.2 0.00 0.00 0.00 81 1016.8
20260506135004 20 137 0.0 1.6 0.00 0.00 0.00 82 1016.9
20260506134504 20 135 0.0 3.2 0.00 0.00 0.00 83 1016.7
20260506134004 20 135 0.0 1.6 0.00 0.00 0.00 83 1016.8
20260506133504 20 140 0.0 3.2 0.00 0.00 0.00 83 1016.6
20260506133004 20 149 0.0 3.2 0.00 0.00 0.00 84 1016.7
20260506132504 19 135 0.0 1.6 0.00 0.00 0.00 84 1016.6
20260506132005 19 130 1.6 4.8 0.00 0.00 0.00 84 1016.7
20260506131504 19 131 1.6 3.2 0.00 0.00 0.00 85 1016.5
20260506131005 18 148 0.0 0.0 0.00 0.00 0.00 85 1016.4
20260506130504 18 148 0.0 0.0 0.00 0.00 0.00 86 1016.4
20260506130004 18 148 0.0 0.0 0.00 0.00 0.00 86 1016.5
20260506125503 18 148 0.0 3.2 0.00 0.00 0.00 86 1016.5
20260506125004 18 153 1.6 3.2 0.00 0.00 0.00 86 1016.5
20260506124504 18 148 0.0 1.6 0.00 0.00 0.00 86 1016.5
20260506124005 18 163 0.0 1.6 0.00 0.00 0.00 87 1016.3
20260506123504 17 141 0.0 0.0 0.00 0.00 0.00 88 1016.3
20260506123005 17 141 0.0 0.0 0.00 0.00 0.00 88 1016.4
20260506122504 17 210 1.6 3.2 0.00 0.00 0.00 88 1016.3
20260506122005 17 222 0.0 0.0 0.00 0.00 0.00 89 1016.2
20260506121504 17 222 0.0 0.0 0.00 0.00 0.00 90 1016.0
20260506121004 17 222 0.0 0.0 0.00 0.00 0.00 90 1016.0
20260506120504 16 222 0.0 0.0 0.00 0.00 0.00 91 1015.9
20260506120004 16 222 0.0 0.0 0.00 0.00 0.00 91 1015.8
20260506115504 16 222 0.0 0.0 0.00 0.00 0.00 91 1015.7
20260506115005 16 222 0.0 3.2 0.00 0.00 0.00 92 1015.7
20260506114504 16 146 0.0 0.0 0.00 0.00 0.00 92 1015.6
20260506114005 16 146 0.0 3.2 0.00 0.00 0.00 92 1015.5
20260506113505 16 119 0.0 0.0 0.00 0.00 0.00 92 1015.4
20260506113004 16 119 0.0 0.0 0.00 0.00 0.00 92 1015.5
20260506112504 16 119 0.0 0.0 0.00 0.00 0.00 92 1015.5
20260506112004 16 119 0.0 0.0 0.00 0.00 0.00 92 1015.5
20260506111504 16 119 0.0 0.0 0.00 0.00 0.00 92 1015.4
20260506111005 15 119 0.0 0.0 0.00 0.00 0.00 92 1015.3
20260506110504 15 119 0.0 0.0 0.00 0.00 0.00 92 1015.1
20260506110004 15 119 0.0 0.0 0.00 0.00 0.00 92 1015.0
20260506105504 15 119 0.0 0.0 0.00 0.00 0.00 92 1014.8
20260506105005 15 119 0.0 0.0 0.00 0.00 0.00 92 1014.7
20260506104504 15 119 0.0 0.0 0.00 0.00 0.00 91 1014.5
20260506104004 15 119 0.0 0.0 0.00 0.00 0.00 91 1014.4
20260506103504 15 119 0.0 0.0 0.00 0.00 0.00 91 1014.4
20260506103005 15 119 0.0 0.0 0.00 0.00 0.00 91 1014.5
20260506102504 15 119 0.0 0.0 0.00 0.00 0.00 91 1014.5
20260506102005 15 119 0.0 0.0 0.00 0.00 0.00 91 1014.5
20260506101504 15 119 0.0 0.0 0.00 0.00 0.00 91 1014.4
20260506101005 15 119 0.0 0.0 0.00 0.00 0.00 91 1014.5
20260506100504 15 119 0.0 0.0 0.00 0.00 0.00 92 1014.5
20260506100004 15 119 0.0 0.0 0.00 0.00 0.00 91 1014.5
20260506095505 15 119 0.0 0.0 0.00 0.00 0.00 92 1014.5
20260506095004 15 119 0.0 0.0 0.00 0.00 0.00 91 1014.6
20260506094504 15 119 0.0 0.0 0.00 0.00 0.00 91 1014.6
20260506094005 15 119 0.0 0.0 0.00 0.00 0.00 90 1014.6
20260506093504 15 119 0.0 0.0 0.00 0.00 0.00 90 1014.6
20260506093005 15 119 0.0 0.0 0.00 0.00 0.00 90 1014.6
20260506092504 15 119 0.0 0.0 0.00 0.00 0.00 90 1014.6
20260506092004 15 119 0.0 0.0 0.00 0.00 0.00 90 1014.4
20260506091504 15 119 0.0 0.0 0.00 0.00 0.00 89 1014.5
20260506091005 15 119 0.0 0.0 0.00 0.00 0.00 88 1014.5
20260506090505 15 119 0.0 0.0 0.00 0.00 0.00 88 1014.6
20260506090004 16 119 0.0 0.0 0.00 0.00 0.00 88 1014.7
20260506085504 16 119 0.0 0.0 0.00 0.00 0.00 88 1014.9
20260506085004 16 119 0.0 0.0 0.00 0.00 0.00 88 1014.9
20260506084504 16 119 0.0 0.0 0.00 0.00 0.00 87 1014.9
20260506084005 16 119 0.0 0.0 0.00 0.00 0.00 87 1014.9
20260506083504 16 119 0.0 0.0 0.00 0.00 0.00 87 1015.0
20260506083004 16 119 0.0 0.0 0.00 0.00 0.00 88 1015.0
20260506082504 16 119 0.0 0.0 0.00 0.00 0.00 88 1015.1
20260506082004 16 119 0.0 0.0 0.00 0.00 0.00 87 1015.1
20260506081504 16 119 0.0 0.0 0.00 0.00 0.00 87 1015.1
20260506081005 16 119 0.0 0.0 0.00 0.00 0.00 86 1015.1
20260506080505 16 119 0.0 0.0 0.00 0.00 0.00 86 1015.1
20260506073504 17 119 0.0 0.0 0.00 0.00 0.00 84 1014.8
20260506073004 17 119 0.0 0.0 0.00 0.00 0.00 83 1014.7
20260506072504 17 119 0.0 0.0 0.00 0.00 0.00 83 1014.6
20260506072004 17 119 0.0 0.0 0.00 0.00 0.00 83 1014.7
20260506071504 17 119 0.0 0.0 0.00 0.00 0.00 82 1014.8
20260506071004 17 119 0.0 0.0 0.00 0.00 0.00 81 1014.8
20260506070504 18 119 0.0 0.0 0.00 0.00 0.00 81 1014.8
20260506062504 18 57 0.0 0.0 0.00 0.00 0.00 83 1014.6
20260506062004 17 57 0.0 0.0 0.00 0.00 0.00 82 1014.5
20260506061504 17 57 0.0 1.6 0.00 0.00 0.00 81 1014.4
20260506061005 17 82 0.0 0.0 0.00 0.00 0.00 81 1014.5
20260506060504 17 82 0.0 1.6 0.00 0.00 0.00 82 1014.6
20260506051005 16 111 0.0 0.0 0.00 0.00 0.00 80 1015.0
20260506050504 16 111 0.0 0.0 0.00 0.00 0.00 80 1015.0
20260506045005 16 111 0.0 0.0 0.00 0.00 0.00 82 1015.1
20260506044504 16 111 0.0 0.0 0.00 0.00 0.00 82 1014.9
20260506044004 16 111 0.0 0.0 0.00 0.00 0.00 83 1014.9
20260506043504 16 111 0.0 0.0 0.00 0.00 0.00 84 1015.0
20260506043004 16 111 0.0 0.0 0.00 0.00 0.00 83 1015.1
20260506042504 16 111 0.0 0.0 0.00 0.00 0.00 83 1015.0
20260506042005 16 111 0.0 0.0 0.00 0.00 0.00 82 1015.2
20260506041504 16 111 0.0 0.0 0.00 0.00 0.00 82 1015.3
20260506041004 16 111 0.0 0.0 0.00 0.00 0.00 81 1015.3
20260506040505 16 111 0.0 0.0 0.00 0.00 0.00 82 1015.2
20260506040004 16 111 0.0 0.0 0.00 0.00 0.00 81 1015.0
20260506035504 16 111 0.0 0.0 0.00 0.00 0.00 80 1015.1
20260506035005 16 111 0.0 0.0 0.00 0.00 0.00 80 1015.0
20260506034503 16 111 0.0 0.0 0.00 0.00 0.00 79 1015.0
20260506034004 16 111 0.0 0.0 0.00 0.00 0.00 78 1014.9
20260506033505 16 111 0.0 0.0 0.00 0.00 0.00 77 1014.9
20260506033005 16 111 0.0 0.0 0.00 0.00 0.00 77 1014.9
20260506032504 16 111 0.0 0.0 0.00 0.00 0.00 76 1015.0
20260506032005 16 111 0.0 0.0 0.00 0.00 0.00 75 1015.0
20260506031503 17 111 0.0 0.0 0.00 0.00 0.00 74 1014.9
20260506031004 17 111 0.0 0.0 0.00 0.00 0.00 74 1015.0
20260506030504 17 111 0.0 0.0 0.00 0.00 0.00 73 1015.0
20260506030004 17 111 0.0 0.0 0.00 0.00 0.00 72 1015.1
20260506025504 17 111 0.0 0.0 0.00 0.00 0.00 72 1015.2
20260506025004 17 111 0.0 0.0 0.00 0.00 0.00 71 1015.4
20260506024503 17 111 0.0 0.0 0.00 0.00 0.00 70 1015.4
20260506024005 17 111 0.0 0.0 0.00 0.00 0.00 69 1015.2
20260506023504 18 111 0.0 0.0 0.00 0.00 0.00 69 1015.2
20260506023004 18 111 0.0 0.0 0.00 0.00 0.00 68 1015.0
20260506022504 18 111 0.0 0.0 0.00 0.00 0.00 67 1015.0
20260506022005 18 111 0.0 0.0 0.00 0.00 0.00 66 1015.1
20260506021503 18 111 0.0 0.0 0.00 0.00 0.00 66 1015.1
20260506021004 18 111 0.0 0.0 0.00 0.00 0.00 65 1014.8
20260506020504 18 111 0.0 0.0 0.00 0.00 0.00 65 1014.8
20260506020003 19 111 0.0 0.0 0.00 0.00 0.00 64 1014.8
20260506015503 19 111 0.0 0.0 0.00 0.00 0.00 64 1014.9
20260506015004 19 111 0.0 0.0 0.00 0.00 0.00 62 1014.9
20260506014504 20 111 0.0 0.0 0.00 0.00 0.00 62 1014.8
20260506014004 20 111 0.0 0.0 0.00 0.00 0.00 60 1014.8
20260506013504 20 111 0.0 0.0 0.00 0.00 0.00 59 1014.8
20260506013004 20 111 0.0 0.0 0.00 0.00 0.00 57 1014.8
20260506012503 20 111 0.0 0.0 0.00 0.00 0.00 56 1014.8
20260506012005 21 111 0.0 0.0 0.00 0.00 0.00 55 1014.8
20260506011504 21 111 0.0 0.0 0.00 0.00 0.00 55 1014.8
20260506011004 21 111 0.0 0.0 0.00 0.00 0.00 55 1015.0
20260506010504 21 111 0.0 0.0 0.00 0.00 0.00 54 1015.0
20260506010004 21 111 0.0 0.0 0.00 0.00 0.00 52 1014.9
20260506005504 21 111 0.0 0.0 0.00 0.00 0.00 51 1015.0
20260506005004 22 111 0.0 0.0 0.00 0.00 0.00 50 1014.9
20260506004504 22 111 0.0 0.0 0.00 0.00 0.00 49 1014.8
20260506004005 22 111 0.0 0.0 0.00 0.00 0.00 47 1014.6
20260506003504 23 111 0.0 0.0 0.00 0.00 0.00 46 1014.5
20260506003004 23 111 0.0 0.0 0.00 0.00 0.00 45 1014.5
20260506002504 23 111 0.0 0.0 0.00 0.00 0.00 44 1014.5
20260506002005 23 111 0.0 0.0 0.00 0.00 0.00 44 1014.5
20260506001504 24 111 0.0 0.0 0.00 0.00 0.00 43 1014.4
20260506001004 24 111 0.0 0.0 0.00 0.00 0.00 42 1014.4
20260506000504 25 111 0.0 0.0 0.00 0.00 0.00 41 1014.4
20260506000004 25 111 0.0 1.6 0.00 0.00 0.00 40 1014.4
20260505235503 25 222 0.0 0.0 0.00 0.00 0.00 39 1014.4
20260505235004 25 222 0.0 0.0 0.00 0.00 0.00 38 1014.3
20260505234504 25 222 0.0 0.0 0.00 0.00 0.00 37 1014.1
20260505234004 26 222 0.0 0.0 0.00 0.00 0.00 36 1014.2
20260505233504 26 271 0.0 1.6 0.00 0.00 0.00 37 1014.2
20260505233004 26 193 1.6 9.7 0.00 0.00 0.00 35 1014.1
20260505232503 26 196 1.6 8.0 0.00 0.00 0.00 35 1014.1
20260505232005 26 324 1.6 8.0 0.00 0.00 0.00 35 1014.1
20260505231504 26 259 0.0 3.2 0.00 0.00 0.00 35 1013.9
20260505231004 26 83 4.8 16.1 0.00 0.00 0.00 34 1013.9
20260505230504 26 100 1.6 8.0 0.00 0.00 0.00 36 1013.8
20260505230004 26 259 1.6 8.0 0.00 0.00 0.00 36 1013.8
20260505225504 26 262 1.6 4.8 0.00 0.00 0.00 37 1013.8
20260505225005 27 228 3.2 4.8 0.00 0.00 0.00 38 1013.7
20260505224504 27 112 1.6 8.0 0.00 0.00 0.00 37 1013.6
20260505224004 27 151 1.6 4.8 0.00 0.00 0.00 36 1013.8
20260505223504 27 134 3.2 11.3 0.00 0.00 0.00 36 1013.8
20260505223004 27 172 3.2 9.7 0.00 0.00 0.00 35 1013.9
20260505222504 27 317 1.6 4.8 0.00 0.00 0.00 36 1013.9
20260505222004 27 257 3.2 14.5 0.00 0.00 0.00 36 1013.8
20260505221504 27 216 3.2 11.3 0.00 0.00 0.00 37 1013.9
20260505221005 27 184 3.2 19.3 0.00 0.00 0.00 37 1013.9
20260505220504 27 196 4.8 14.5 0.00 0.00 0.00 36 1014.0
20260505220004 27 170 3.2 4.8 0.00 0.00 0.00 37 1014.0
20260505215504 27 247 1.6 8.0 0.00 0.00 0.00 38 1013.9
20260505215005 27 211 3.2 12.9 0.00 0.00 0.00 37 1013.8
20260505214504 27 99 3.2 9.7 0.00 0.00 0.00 38 1014.0
20260505214004 27 146 4.8 16.1 0.00 0.00 0.00 38 1014.3
20260505213504 27 24 3.2 12.9 0.00 0.00 0.00 37 1014.3
20260505213004 27 133 1.6 8.0 0.00 0.00 0.00 39 1014.3
20260505212503 27 85 3.2 14.5 0.00 0.00 0.00 38 1014.3
20260505212004 28 227 1.6 4.8 0.00 0.00 0.00 38 1014.2
20260505211504 28 166 3.2 9.7 0.00 0.00 0.00 37 1014.1
20260505211005 28 332 1.6 4.8 0.00 0.00 0.00 39 1014.2
20260505210504 28 251 4.8 8.0 0.00 0.00 0.00 38 1014.1
20260505210004 28 93 1.6 8.0 0.00 0.00 0.00 38 1014.3
20260505205503 28 138 4.8 11.3 0.00 0.00 0.00 38 1014.2
20260505205004 28 181 1.6 9.7 0.00 0.00 0.00 39 1014.2
20260505204504 28 141 4.8 11.3 0.00 0.00 0.00 38 1014.3
20260505204005 28 148 3.2 9.7 0.00 0.00 0.00 38 1014.3
20260505203504 28 107 4.8 14.5 0.00 0.00 0.00 38 1014.4
20260505203005 28 132 4.8 12.9 0.00 0.00 0.00 38 1014.6
20260505202504 27 71 0.0 14.5 0.00 0.00 0.00 40 1014.6
20260505202004 28 134 8.0 19.3 0.00 0.00 0.00 38 1014.6
20260505201504 28 129 4.8 12.9 0.00 0.00 0.00 38 1014.7
20260505201005 28 203 3.2 8.0 0.00 0.00 0.00 39 1014.8
20260505200504 28 211 3.2 19.3 0.00 0.00 0.00 38 1014.7
20260505200004 29 265 3.2 8.0 0.00 0.00 0.00 40 1014.7
20260505195504 28 120 4.8 9.7 0.00 0.00 0.00 38 1015.0
20260505195004 28 191 3.2 9.7 0.00 0.00 0.00 37 1015.1
20260505194504 28 106 3.2 4.8 0.00 0.00 0.00 38 1015.1
20260505194005 28 83 1.6 11.3 0.00 0.00 0.00 39 1015.1
20260505193504 28 271 3.2 8.0 0.00 0.00 0.00 38 1015.2
20260505193004 28 166 1.6 4.8 0.00 0.00 0.00 38 1015.1
20260505192504 28 189 3.2 11.3 0.00 0.00 0.00 37 1015.2
20260505192005 28 109 4.8 14.5 0.00 0.00 0.00 38 1015.2
20260505191504 28 144 4.8 12.9 0.00 0.00 0.00 39 1015.2
20260505191005 28 92 3.2 9.7 0.00 0.00 0.00 40 1015.4
20260505190504 28 206 3.2 12.9 0.00 0.00 0.00 40 1015.4
20260505190004 28 34 4.8 12.9 0.00 0.00 0.00 39 1015.5
20260505185504 28 257 4.8 9.7 0.00 0.00 0.00 38 1015.7
20260505185004 28 253 3.2 11.3 0.00 0.00 0.00 37 1015.9
20260505184504 28 253 4.8 12.9 0.00 0.00 0.00 37 1016.1
20260505184004 28 81 3.2 11.3 0.00 0.00 0.00 37 1016.1
20260505183504 28 210 3.2 12.9 0.00 0.00 0.00 36 1016.4
20260505183005 28 167 3.2 9.7 0.00 0.00 0.00 37 1016.3
20260505182504 28 262 1.6 4.8 0.00 0.00 0.00 38 1016.4
20260505182004 27 133 3.2 12.9 0.00 0.00 0.00 40 1016.4
20260505181504 28 264 4.8 12.9 0.00 0.00 0.00 40 1016.3
20260505181005 27 277 3.2 14.5 0.00 0.00 0.00 39 1016.3
20260505180504 27 200 3.2 11.3 0.00 0.00 0.00 40 1016.5
20260505180004 27 225 1.6 11.3 0.00 0.00 0.00 43 1016.4
20260505175504 27 94 3.2 9.7 0.00 0.00 0.00 40 1016.6
20260505175004 27 94 3.2 12.9 0.00 0.00 0.00 41 1016.6
20260505174504 27 149 4.8 12.9 0.00 0.00 0.00 39 1016.7
20260505174004 27 122 3.2 9.7 0.00 0.00 0.00 38 1016.5
20260505173505 27 215 3.2 12.9 0.00 0.00 0.00 38 1016.6
20260505173004 27 162 1.6 9.7 0.00 0.00 0.00 38 1016.6
20260505172504 27 111 6.4 14.5 0.00 0.00 0.00 39 1016.7
20260505172004 27 129 3.2 12.9 0.00 0.00 0.00 40 1016.7
20260505171503 27 175 3.2 9.7 0.00 0.00 0.00 41 1016.7
20260505171004 27 232 3.2 16.1 0.00 0.00 0.00 39 1016.8
20260505170504 27 127 4.8 19.3 0.00 0.00 0.00 42 1016.8
20260505170004 27 20 3.2 9.7 0.00 0.00 0.00 42 1017.0